START_TIME,STEP,MOV.,M6,t_acc.,M7,t_acc.,M19,t_acc.,H36,t_acc.
1979-07-17 00:00:27.130 ,0,0,0.,12.0,0.,12.0,0.,12.0,0.,12.0
1979-07-17 00:00:39.130 ,0,0,1.,12.0,0.,12.0,0.,12.0,0.,12.0
1979-07-17 00:00:51.130 ,1,1,0.,12.0,0.,12.0,0.,12.0,0.,12.0
1979-07-17 00:01:03.130 ,1,1,0.,12.0,0.,12.0,0.,12.0,0.,12.0
1979-07-17 00:01:15.130 ,1,0,1.,12.0,0.,12.0,0.,12.0,0.,12.0
1979-07-17 00:01:27.130 ,1,0,0.,12.0,0.,12.0,0.,12.0,0.,12.0
1979-07-17 00:01:39.130 ,2,1,0.,12.0,0.,12.0,0.,12.0,0.,12.0
1979-07-17 00:01:51.130 ,2,1,1.,12.0,0.,12.0,0.,12.0,0.,12.0
1979-07-17 00:02:03.130 ,2,0,0.,12.0,0.,12.0,0.,12.0,0.,12.0
1979-07-17 00:02:15.130 ,2,0,0.,12.0,0.,12.0,0.,12.0,1.,12.0
1979-07-17 00:02:27.130 ,3,1,0.,12.0,0.,12.0,0.,12.0,1.,12.0
1979-07-17 00:02:39.130 ,3,1,0.,12.0,0.,12.0,0.,12.0,0.,12.0
1979-07-17 00:02:51.130 ,3,0,0.,12.0,0.,12.0,0.,12.0,0.,12.0
1979-07-17 00:03:03.130 ,3,0,0.,12.0,0.,12.0,0.,12.0,0.,12.0
1979-07-17 00:03:15.130 ,4,1,0.,12.0,0.,12.0,0.,12.0,0.,12.0
1979-07-17 00:03:27.130 ,4,1,0.,12.0,0.,12.0,0.,12.0,0.,12.0
1979-07-17 00:03:39.130 ,4,0,0.,12.0,0.,12.0,0.,12.0,0.,12.0
1979-07-17 00:03:51.130 ,4,0,0.,12.0,0.,12.0,0.,12.0,0.,12.0
1979-07-17 00:04:03.130 ,5,1,0.,12.0,0.,12.0,0.,12.0,0.,12.0
1979-07-17 00:04:15.130 ,5,1,0.,12.0,0.,12.0,0.,12.0,0.,12.0
1979-07-17 00:04:27.130 ,5,0,0.,12.0,0.,12.0,0.,12.0,0.,12.0
1979-07-17 00:04:39.130 ,5,0,0.,12.0,0.,12.0,0.,12.0,0.,12.0
1979-07-17 00:04:51.130 ,6,1,0.,12.0,0.,12.0,0.,12.0,0.,12.0
1979-07-17 00:05:03.130 ,6,1,0.,12.0,0.,12.0,0.,12.0,0.,12.0
1979-07-17 00:05:15.130 ,6,0,0.,12.0,0.,12.0,0.,12.0,0.,12.0
1979-07-17 00:05:27.130 ,6,0,0.,12.0,0.,12.0,0.,12.0,0.,12.0
1979-07-17 00:05:39.130 ,7,1,0.,12.0,0.,12.0,0.,12.0,0.,12.0
1979-07-17 00:05:51.130 ,7,1,0.,12.0,0.,12.0,0.,12.0,0.,12.0
1979-07-17 00:06:03.130 ,7,0,0.,12.0,0.,12.0,0.,12.0,0.,12.0
1979-07-17 00:06:15.130 ,7,0,0.,12.0,0.,12.0,0.,12.0,0.,12.0
1979-07-17 00:06:27.130 ,7,1,0.,12.0,0.,12.0,0.,12.0,0.,12.0
1979-07-17 00:06:39.130 ,7,1,0.,12.0,0.,12.0,0.,12.0,0.,12.0
1979-07-17 00:06:51.130 ,7,0,0.,12.0,0.,12.0,0.,12.0,0.,12.0
1979-07-17 00:07:03.130 ,7,0,0.,12.0,0.,12.0,0.,12.0,0.,12.0
1979-07-17 00:07:15.130 ,0,0,0.,12.0,0.,12.0,0.,12.0,0.,12.0
1979-07-17 00:07:27.130 ,0,0,0.,12.0,0.,12.0,0.,12.0,0.,12.0
1979-07-17 00:07:39.130 ,0,0,,0,,0,,0,,0
1979-07-17 00:07:51.130 ,0,0,,0,,0,,0,,0
1979-07-17 00:07:39.130 ,6,0,0.,12.0,0.,12.0,0.,12.0,0.,12.0
1979-07-17 00:07:51.130 ,6,0,0.,12.0,0.,12.0,0.,12.0,0.,12.0
1979-07-17 00:08:03.130 ,5,1,0.,12.0,0.,12.0,0.,12.0,0.,12.0
1979-07-17 00:08:15.130 ,5,1,0.,12.0,0.,12.0,0.,12.0,0.,12.0
1979-07-17 00:08:27.130 ,5,0,0.,12.0,0.,12.0,0.,12.0,0.,12.0
1979-07-17 00:08:39.130 ,5,0,0.,12.0,0.,12.0,0.,12.0,0.,12.0
1979-07-17 00:08:51.130 ,4,1,0.,12.0,0.,12.0,0.,12.0,0.,12.0
1979-07-17 00:09:03.130 ,4,1,0.,12.0,0.,12.0,0.,12.0,0.,12.0
1979-07-17 00:09:15.130 ,4,0,0.,12.0,0.,12.0,0.,12.0,0.,12.0
1979-07-17 00:09:27.130 ,4,0,0.,12.0,0.,12.0,0.,12.0,0.,12.0
1979-07-17 00:09:39.130 ,3,1,0.,12.0,0.,12.0,0.,12.0,0.,12.0
1979-07-17 00:09:51.130 ,3,1,0.,12.0,0.,12.0,0.,12.0,0.,12.0
1979-07-17 00:10:03.130 ,3,0,0.,12.0,0.,12.0,0.,12.0,0.,12.0
1979-07-17 00:10:15.130 ,3,0,0.,12.0,0.,12.0,0.,12.0,0.,12.0
1979-07-17 00:10:27.130 ,2,1,0.,12.0,0.,12.0,0.,12.0,0.,12.0
1979-07-17 00:10:39.130 ,2,1,1.,12.0,0.,12.0,0.,12.0,0.,12.0
1979-07-17 00:10:51.130 ,2,0,0.,12.0,0.,12.0,0.,12.0,0.,12.0
1979-07-17 00:11:03.130 ,2,0,0.,12.0,0.,12.0,0.,12.0,0.,12.0
1979-07-17 00:11:15.130 ,1,1,0.,12.0,0.,12.0,0.,12.0,0.,12.0
1979-07-17 00:11:27.130 ,1,1,0.,12.0,0.,12.0,0.,12.0,0.,12.0
1979-07-17 00:11:39.130 ,1,0,0.,12.0,0.,12.0,0.,12.0,0.,12.0
1979-07-17 00:11:51.130 ,1,0,0.,12.0,0.,12.0,0.,12.0,0.,12.0
1979-07-17 00:12:03.130 ,0,1,1.,12.0,0.,12.0,0.,12.0,1.,12.0
1979-07-17 00:12:15.130 ,0,1,0.,12.0,0.,12.0,0.,12.0,0.,12.0
1979-07-17 00:12:27.130 ,0,0,0.,12.0,0.,12.0,0.,12.0,0.,12.0
1979-07-17 00:12:39.130 ,0,0,0.,12.0,0.,12.0,0.,12.0,0.,12.0
1979-07-17 00:12:51.130 ,0,1,0.,12.0,0.,12.0,0.,12.0,0.,12.0
1979-07-17 00:13:03.130 ,0,1,0.,12.0,0.,12.0,0.,12.0,0.,12.0
1979-07-17 00:13:15.130 ,0,0,1.,12.0,0.,12.0,0.,12.0,0.,12.0
1979-07-17 00:13:27.130 ,0,0,0.,12.0,0.,12.0,0.,12.0,0.,12.0
1979-07-17 00:13:39.130 ,1,1,0.,12.0,0.,12.0,0.,12.0,0.,12.0
1979-07-17 00:13:51.130 ,1,1,1.,12.0,0.,12.0,0.,12.0,0.,12.0
1979-07-17 00:14:03.130 ,1,0,0.,12.0,0.,12.0,0.,12.0,0.,12.0
1979-07-17 00:14:15.130 ,1,0,0.,12.0,0.,12.0,0.,12.0,0.,12.0
1979-07-17 00:14:27.130 ,2,1,0.,12.0,0.,12.0,0.,12.0,0.,12.0
1979-07-17 00:14:39.130 ,2,1,0.,12.0,0.,12.0,0.,12.0,0.,12.0
1979-07-17 00:14:51.130 ,2,0,0.,12.0,0.,12.0,0.,12.0,0.,12.0
1979-07-17 00:15:03.130 ,2,0,0.,12.0,0.,12.0,0.,12.0,1.,12.0
1979-07-17 00:15:15.130 ,3,1,0.,12.0,0.,12.0,0.,12.0,1.,12.0
1979-07-17 00:15:27.130 ,3,1,0.,12.0,0.,12.0,0.,12.0,1.,12.0
1979-07-17 00:15:39.130 ,3,0,1.,12.0,0.,12.0,0.,12.0,0.,12.0
1979-07-17 00:15:51.130 ,3,0,0.,12.0,0.,12.0,0.,12.0,0.,12.0
1979-07-17 00:16:03.130 ,4,1,0.,12.0,0.,12.0,0.,12.0,0.,12.0
1979-07-17 00:16:15.130 ,4,1,0.,12.0,0.,12.0,0.,12.0,0.,12.0
1979-07-17 00:16:27.130 ,4,0,1.,12.0,0.,12.0,0.,12.0,0.,12.0
1979-07-17 00:16:39.130 ,4,0,0.,12.0,0.,12.0,0.,12.0,0.,12.0
1979-07-17 00:16:51.130 ,5,1,0.,12.0,0.,12.0,0.,12.0,0.,12.0
1979-07-17 00:17:03.130 ,5,1,0.,12.0,0.,12.0,0.,12.0,0.,12.0
1979-07-17 00:17:15.130 ,5,0,0.,12.0,0.,12.0,0.,12.0,0.,12.0
1979-07-17 00:17:27.130 ,5,0,1.,12.0,0.,12.0,0.,12.0,0.,12.0
1979-07-17 00:17:39.130 ,6,1,0.,12.0,0.,12.0,0.,12.0,0.,12.0
1979-07-17 00:17:51.130 ,6,1,0.,12.0,0.,12.0,0.,12.0,0.,12.0
1979-07-17 00:18:03.130 ,6,0,0.,12.0,0.,12.0,0.,12.0,0.,12.0
1979-07-17 00:18:15.130 ,6,0,0.,12.0,0.,12.0,0.,12.0,0.,12.0
1979-07-17 00:18:27.130 ,7,0,0.,12.0,0.,12.0,0.,12.0,0.,12.0
1979-07-17 00:18:39.130 ,7,0,0.,12.0,0.,12.0,0.,12.0,0.,12.0
1979-07-17 00:18:51.130 ,7,0,0.,12.0,0.,12.0,0.,12.0,0.,12.0
1979-07-17 00:19:03.130 ,7,0,0.,12.0,0.,12.0,0.,12.0,0.,12.0
1979-07-17 00:19:15.130 ,4,1,0.,12.0,0.,12.0,0.,12.0,0.,12.0
1979-07-17 00:19:27.130 ,4,1,0.,12.0,0.,12.0,0.,12.0,0.,12.0
1979-07-17 00:19:39.130 ,0,1,0.,12.0,0.,12.0,0.,12.0,1.,12.0
1979-07-17 00:19:51.130 ,0,1,0.,12.0,0.,12.0,0.,12.0,0.,12.0
1979-07-17 00:20:03.130 ,3,1,0.,12.0,0.,12.0,0.,12.0,0.,12.0
1979-07-17 00:20:15.130 ,3,1,0.,12.0,0.,12.0,0.,12.0,0.,12.0
1979-07-17 00:20:27.130 ,7,1,1.,12.0,0.,12.0,0.,12.0,0.,12.0
1979-07-17 00:20:39.130 ,7,1,0.,12.0,0.,12.0,0.,12.0,0.,12.0
1979-07-17 00:20:51.130 ,4,1,0.,12.0,0.,12.0,0.,12.0,0.,12.0
1979-07-17 00:21:03.130 ,4,1,0.,12.0,0.,12.0,0.,12.0,0.,12.0
1979-07-17 00:21:15.130 ,0,1,1.,12.0,0.,12.0,0.,12.0,0.,12.0
1979-07-17 00:21:27.130 ,0,1,0.,12.0,0.,12.0,0.,12.0,0.,12.0
1979-07-17 00:21:39.130 ,3,1,0.,12.0,0.,12.0,0.,12.0,0.,12.0
1979-07-17 00:21:51.130 ,3,1,1.,12.0,0.,12.0,0.,12.0,0.,12.0
1979-07-17 00:22:03.130 ,7,1,0.,12.0,0.,12.0,0.,12.0,0.,12.0
1979-07-17 00:22:15.130 ,7,1,0.,12.0,0.,12.0,0.,12.0,0.,12.0
1979-07-17 00:22:27.130 ,4,1,0.,12.0,0.,12.0,0.,12.0,0.,12.0
1979-07-17 00:22:39.130 ,4,1,0.,12.0,0.,12.0,0.,12.0,0.,12.0
1979-07-17 00:22:51.130 ,0,1,0.,12.0,0.,12.0,0.,12.0,0.,12.0
1979-07-17 00:23:03.130 ,0,1,0.,12.0,0.,12.0,0.,12.0,0.,12.0
1979-07-17 00:23:15.130 ,3,1,0.,12.0,0.,12.0,0.,12.0,0.,12.0
1979-07-17 00:23:27.130 ,3,1,1.,12.0,0.,12.0,0.,12.0,1.,12.0
1979-07-17 00:23:39.130 ,7,1,0.,12.0,0.,12.0,0.,12.0,0.,12.0
1979-07-17 00:23:51.130 ,7,1,0.,12.0,0.,12.0,0.,12.0,0.,12.0
1979-07-17 00:24:03.130 ,4,1,0.,12.0,0.,12.0,0.,12.0,0.,12.0
1979-07-17 00:24:15.130 ,4,1,0.,12.0,0.,12.0,0.,12.0,1.,12.0
1979-07-17 00:24:27.130 ,0,1,0.,12.0,0.,12.0,0.,12.0,0.,12.0
1979-07-17 00:24:39.130 ,0,1,0.,12.0,0.,12.0,0.,12.0,0.,12.0
1979-07-17 00:24:51.130 ,3,1,0.,12.0,0.,12.0,0.,12.0,0.,12.0
1979-07-17 00:25:03.130 ,3,1,0.,12.0,0.,12.0,0.,12.0,0.,12.0
1979-07-17 00:25:15.130 ,7,1,1.,12.0,0.,12.0,0.,12.0,0.,12.0
1979-07-17 00:25:27.130 ,7,1,0.,12.0,0.,12.0,0.,12.0,0.,12.0
1979-07-17 00:25:39.130 ,4,1,0.,12.0,0.,12.0,0.,12.0,0.,12.0
1979-07-17 00:25:51.130 ,4,1,0.,12.0,0.,12.0,0.,12.0,0.,12.0
1979-07-17 00:26:03.130 ,0,1,1.,12.0,0.,12.0,0.,12.0,0.,12.0
1979-07-17 00:26:15.130 ,0,1,0.,12.0,0.,12.0,0.,12.0,0.,12.0
1979-07-17 00:26:27.130 ,3,1,0.,12.0,0.,12.0,0.,12.0,0.,12.0
1979-07-17 00:26:39.130 ,3,1,0.,12.0,0.,12.0,0.,12.0,0.,12.0
1979-07-17 00:26:51.130 ,7,1,0.,12.0,0.,12.0,0.,12.0,0.,12.0
1979-07-17 00:27:03.130 ,7,1,0.,12.0,0.,12.0,0.,12.0,0.,12.0
1979-07-17 00:27:15.130 ,4,1,0.,12.0,0.,12.0,0.,12.0,0.,12.0
1979-07-17 00:27:27.130 ,4,1,1.,12.0,0.,12.0,0.,12.0,0.,12.0
1979-07-17 00:27:39.130 ,0,1,0.,12.0,0.,12.0,0.,12.0,0.,12.0
1979-07-17 00:27:51.130 ,0,1,0.,12.0,0.,12.0,0.,12.0,0.,12.0
1979-07-17 00:28:03.130 ,3,1,0.,12.0,0.,12.0,0.,12.0,0.,12.0
1979-07-17 00:28:15.130 ,3,1,0.,12.0,0.,12.0,0.,12.0,0.,12.0
1979-07-17 00:28:27.130 ,7,1,0.,12.0,0.,12.0,0.,12.0,0.,12.0
1979-07-17 00:28:39.130 ,7,1,0.,12.0,0.,12.0,0.,12.0,0.,12.0
1979-07-17 00:28:51.130 ,4,1,0.,12.0,0.,12.0,0.,12.0,0.,12.0
1979-07-17 00:29:03.130 ,4,1,0.,12.0,0.,12.0,0.,12.0,0.,12.0
1979-07-17 00:29:15.130 ,0,1,0.,12.0,0.,12.0,0.,12.0,0.,12.0
1979-07-17 00:29:27.130 ,0,1,0.,12.0,0.,12.0,0.,12.0,0.,12.0
1979-07-17 00:29:39.130 ,0,0,0.,12.0,0.,12.0,0.,12.0,0.,12.0
1979-07-17 00:29:51.130 ,0,0,0.,12.0,0.,12.0,0.,12.0,0.,12.0
1979-07-17 00:30:03.130 ,0,0,0.,12.0,0.,12.0,0.,12.0,0.,12.0
1979-07-17 00:30:15.130 ,0,0,0.,12.0,0.,12.0,0.,12.0,1.,12.0
1979-07-17 00:30:27.130 ,5,1,0.,12.0,0.,12.0,0.,12.0,0.,12.0
1979-07-17 00:30:39.130 ,5,1,0.,12.0,0.,12.0,0.,12.0,0.,12.0
1979-07-17 00:30:51.130 ,5,0,0.,12.0,0.,12.0,0.,12.0,0.,12.0
1979-07-17 00:31:03.130 ,5,0,0.,12.0,0.,12.0,0.,12.0,0.,12.0
1979-07-17 00:31:15.130 ,4,1,0.,12.0,0.,12.0,0.,12.0,0.,12.0
1979-07-17 00:31:27.130 ,4,1,0.,12.0,0.,12.0,0.,12.0,0.,12.0
1979-07-17 00:31:39.130 ,4,0,0.,12.0,0.,12.0,0.,12.0,0.,12.0
1979-07-17 00:31:51.130 ,4,0,0.,12.0,0.,12.0,0.,12.0,0.,12.0
1979-07-17 00:32:03.130 ,3,1,0.,12.0,0.,12.0,0.,12.0,0.,12.0
1979-07-17 00:32:15.130 ,3,1,0.,12.0,0.,12.0,0.,12.0,0.,12.0
1979-07-17 00:32:27.130 ,3,0,0.,12.0,0.,12.0,0.,12.0,0.,12.0
1979-07-17 00:32:39.130 ,3,0,0.,12.0,0.,12.0,0.,12.0,0.,12.0
1979-07-17 00:32:51.130 ,2,1,0.,12.0,0.,12.0,0.,12.0,1.,12.0
1979-07-17 00:33:03.130 ,2,1,1.,12.0,0.,12.0,0.,12.0,0.,12.0
1979-07-17 00:33:15.130 ,2,0,0.,12.0,0.,12.0,0.,12.0,0.,12.0
1979-07-17 00:33:27.130 ,2,0,0.,12.0,0.,12.0,0.,12.0,0.,12.0
1979-07-17 00:33:39.130 ,1,1,0.,12.0,0.,12.0,0.,12.0,0.,12.0
1979-07-17 00:33:51.130 ,1,1,0.,12.0,0.,12.0,0.,12.0,1.,12.0
1979-07-17 00:34:03.130 ,1,0,0.,12.0,0.,12.0,0.,12.0,0.,12.0
1979-07-17 00:34:15.130 ,1,0,0.,12.0,0.,12.0,0.,12.0,0.,12.0
1979-07-17 00:34:27.130 ,0,1,0.,12.0,0.,12.0,0.,12.0,0.,12.0
1979-07-17 00:34:39.130 ,0,1,0.,12.0,0.,12.0,0.,12.0,0.,12.0
1979-07-17 00:34:51.130 ,0,0,0.,12.0,0.,12.0,0.,12.0,0.,12.0
1979-07-17 00:35:03.130 ,0,0,1.,12.0,0.,12.0,0.,12.0,0.,12.0
1979-07-17 00:35:15.130 ,0,1,0.,12.0,0.,12.0,0.,12.0,0.,12.0
1979-07-17 00:35:27.130 ,0,1,0.,12.0,0.,12.0,0.,12.0,0.,12.0
1979-07-17 00:35:39.130 ,0,0,0.,12.0,0.,12.0,0.,12.0,0.,12.0
1979-07-17 00:35:51.130 ,0,0,0.,12.0,0.,12.0,0.,12.0,0.,12.0
1979-07-17 00:36:03.130 ,1,1,0.,12.0,0.,12.0,0.,12.0,0.,12.0
1979-07-17 00:36:15.130 ,1,1,1.,12.0,0.,12.0,0.,12.0,0.,12.0
1979-07-17 00:36:27.130 ,1,0,0.,12.0,0.,12.0,0.,12.0,0.,12.0
1979-07-17 00:36:39.130 ,1,0,0.,12.0,0.,12.0,0.,12.0,0.,12.0
1979-07-17 00:36:51.130 ,2,1,0.,12.0,0.,12.0,0.,12.0,0.,12.0
1979-07-17 00:37:03.130 ,2,1,0.,12.0,0.,12.0,0.,12.0,0.,12.0
1979-07-17 00:37:15.130 ,2,0,1.,12.0,0.,12.0,0.,12.0,0.,12.0
1979-07-17 00:37:27.130 ,2,0,0.,12.0,0.,12.0,0.,12.0,0.,12.0
1979-07-17 00:37:39.130 ,3,1,0.,12.0,0.,12.0,0.,12.0,1.,12.0
1979-07-17 00:37:51.130 ,3,1,0.,12.0,0.,12.0,0.,12.0,0.,12.0
1979-07-17 00:38:03.130 ,3,0,0.,12.0,0.,12.0,0.,12.0,0.,12.0
1979-07-17 00:38:15.130 ,3,0,0.,12.0,0.,12.0,0.,12.0,0.,12.0
1979-07-17 00:38:27.130 ,4,1,0.,12.0,0.,12.0,0.,12.0,0.,12.0
1979-07-17 00:38:39.130 ,4,1,1.,12.0,0.,12.0,0.,12.0,0.,12.0
1979-07-17 00:38:51.130 ,4,0,0.,12.0,0.,12.0,0.,12.0,0.,12.0
1979-07-17 00:39:03.130 ,4,0,0.,12.0,0.,12.0,0.,12.0,0.,12.0
1979-07-17 00:39:15.130 ,5,1,0.,12.0,0.,12.0,0.,12.0,0.,12.0
1979-07-17 00:39:27.130 ,5,1,0.,12.0,0.,12.0,0.,12.0,0.,12.0
1979-07-17 00:39:39.130 ,5,0,0.,12.0,0.,12.0,0.,12.0,0.,12.0
1979-07-17 00:39:51.130 ,5,0,0.,12.0,0.,12.0,0.,12.0,0.,12.0
1979-07-17 00:40:03.130 ,6,1,0.,12.0,0.,12.0,0.,12.0,0.,12.0
1979-07-17 00:40:15.130 ,6,1,0.,12.0,0.,12.0,0.,12.0,0.,12.0
1979-07-17 00:40:27.130 ,6,0,0.,12.0,0.,12.0,0.,12.0,1.,12.0
1979-07-17 00:40:39.130 ,6,0,0.,12.0,0.,12.0,0.,12.0,0.,12.0
1979-07-17 00:40:51.130 ,7,1,0.,12.0,0.,12.0,0.,12.0,0.,12.0
1979-07-17 00:41:03.130 ,7,1,0.,12.0,0.,12.0,0.,12.0,0.,12.0
1979-07-17 00:41:15.130 ,7,0,0.,12.0,0.,12.0,0.,12.0,0.,12.0
1979-07-17 00:41:27.130 ,7,0,0.,12.0,0.,12.0,0.,12.0,0.,12.0
1979-07-17 00:41:39.130 ,7,1,0.,12.0,0.,12.0,0.,12.0,0.,12.0
1979-07-17 00:41:51.130 ,7,1,0.,12.0,0.,12.0,0.,12.0,0.,12.0
1979-07-17 00:42:03.130 ,7,0,0.,12.0,0.,12.0,0.,12.0,0.,12.0
1979-07-17 00:42:15.130 ,7,0,0.,12.0,0.,12.0,0.,12.0,0.,12.0
1979-07-17 00:42:27.130 ,6,1,0.,12.0,0.,12.0,0.,12.0,0.,12.0
1979-07-17 00:42:39.130 ,6,1,0.,12.0,0.,12.0,0.,12.0,0.,12.0
1979-07-17 00:42:51.130 ,6,0,0.,12.0,0.,12.0,0.,12.0,0.,12.0
1979-07-17 00:43:03.130 ,6,0,0.,12.0,0.,12.0,0.,12.0,0.,12.0
1979-07-17 00:43:15.130 ,5,1,0.,12.0,0.,12.0,0.,12.0,0.,12.0
1979-07-17 00:43:27.130 ,5,1,0.,12.0,0.,12.0,0.,12.0,0.,12.0
1979-07-17 00:43:39.130 ,5,0,1.,12.0,0.,12.0,0.,12.0,0.,12.0
1979-07-17 00:43:51.130 ,5,0,0.,12.0,0.,12.0,0.,12.0,0.,12.0
1979-07-17 00:44:03.130 ,4,1,0.,12.0,0.,12.0,0.,12.0,0.,12.0
1979-07-17 00:44:15.130 ,4,1,0.,12.0,0.,12.0,0.,12.0,0.,12.0
1979-07-17 00:44:27.130 ,4,0,1.,12.0,0.,12.0,0.,12.0,0.,12.0
1979-07-17 00:44:39.130 ,4,0,0.,12.0,0.,12.0,0.,12.0,0.,12.0
1979-07-17 00:44:51.130 ,3,1,0.,12.0,0.,12.0,0.,12.0,0.,12.0
1979-07-17 00:45:03.130 ,3,1,2.,12.0,1.,12.0,0.,12.0,0.,12.0
1979-07-17 00:45:15.130 ,3,0,0.,12.0,0.,12.0,0.,12.0,0.,12.0
1979-07-17 00:45:27.130 ,3,0,0.,12.0,0.,12.0,0.,12.0,0.,12.0
1979-07-17 00:45:39.130 ,2,1,0.,12.0,0.,12.0,0.,12.0,0.,12.0
1979-07-17 00:45:51.130 ,2,1,1.,12.0,0.,12.0,0.,12.0,1.,12.0
1979-07-17 00:46:03.130 ,2,0,0.,12.0,0.,12.0,0.,12.0,0.,12.0
1979-07-17 00:46:15.130 ,2,0,0.,12.0,0.,12.0,0.,12.0,0.,12.0
1979-07-17 00:46:27.130 ,1,1,1.,12.0,0.,12.0,0.,12.0,0.,12.0
1979-07-17 00:46:39.130 ,1,1,0.,12.0,0.,12.0,0.,12.0,0.,12.0
1979-07-17 00:46:51.130 ,1,0,0.,12.0,0.,12.0,0.,12.0,0.,12.0
1979-07-17 00:47:03.130 ,1,0,0.,12.0,0.,12.0,0.,12.0,0.,12.0
1979-07-17 00:47:15.130 ,0,1,0.,12.0,0.,12.0,0.,12.0,0.,12.0
1979-07-17 00:47:27.130 ,0,1,0.,12.0,0.,12.0,0.,12.0,0.,12.0
1979-07-17 00:47:39.130 ,0,0,0.,12.0,0.,12.0,0.,12.0,0.,12.0
1979-07-17 00:47:51.130 ,0,0,0.,12.0,0.,12.0,0.,12.0,0.,12.0
1979-07-17 00:48:03.130 ,0,1,0.,12.0,0.,12.0,0.,12.0,0.,12.0
1979-07-17 00:48:15.130 ,0,1,0.,12.0,0.,12.0,0.,12.0,0.,12.0
1979-07-17 00:48:27.130 ,0,0,0.,12.0,0.,12.0,0.,12.0,0.,12.0
1979-07-17 00:48:39.130 ,0,0,0.,12.0,0.,12.0,0.,12.0,0.,12.0
1979-07-17 00:48:51.130 ,1,1,0.,12.0,0.,12.0,0.,12.0,0.,12.0
1979-07-17 00:49:03.130 ,1,1,0.,12.0,0.,12.0,0.,12.0,1.,12.0
1979-07-17 00:49:15.130 ,1,0,0.,12.0,0.,12.0,0.,12.0,0.,12.0
1979-07-17 00:49:27.130 ,1,0,0.,12.0,0.,12.0,0.,12.0,0.,12.0
1979-07-17 00:49:39.130 ,2,1,0.,12.0,0.,12.0,0.,12.0,0.,12.0
1979-07-17 00:49:51.130 ,2,1,0.,12.0,0.,12.0,0.,12.0,0.,12.0
1979-07-17 00:50:03.130 ,2,0,0.,12.0,0.,12.0,0.,12.0,0.,12.0
1979-07-17 00:50:15.130 ,2,0,0.,12.0,0.,12.0,0.,12.0,0.,12.0
1979-07-17 00:50:27.130 ,3,1,2.,12.0,0.,12.0,0.,12.0,0.,12.0
1979-07-17 00:50:39.130 ,3,1,0.,12.0,0.,12.0,0.,12.0,1.,12.0
1979-07-17 00:50:51.130 ,3,0,0.,12.0,0.,12.0,0.,12.0,0.,12.0
1979-07-17 00:51:03.130 ,3,0,0.,12.0,0.,12.0,0.,12.0,0.,12.0
1979-07-17 00:51:15.130 ,4,1,0.,12.0,0.,12.0,0.,12.0,0.,12.0
1979-07-17 00:51:27.130 ,4,1,0.,12.0,0.,12.0,0.,12.0,0.,12.0
1979-07-17 00:51:39.130 ,4,0,0.,12.0,0.,12.0,0.,12.0,0.,12.0
1979-07-17 00:51:51.130 ,4,0,0.,12.0,0.,12.0,0.,12.0,0.,12.0
1979-07-17 00:52:03.130 ,5,1,1.,12.0,0.,12.0,0.,12.0,0.,12.0
1979-07-17 00:52:15.130 ,5,1,0.,12.0,0.,12.0,0.,12.0,0.,12.0
1979-07-17 00:52:27.130 ,5,0,0.,12.0,0.,12.0,0.,12.0,0.,12.0
1979-07-17 00:52:39.130 ,5,0,0.,12.0,0.,12.0,0.,12.0,0.,12.0
1979-07-17 00:52:51.130 ,6,1,0.,12.0,0.,12.0,0.,12.0,0.,12.0
1979-07-17 00:53:03.130 ,6,1,0.,12.0,0.,12.0,0.,12.0,0.,12.0
1979-07-17 00:53:15.130 ,6,0,1.,12.0,0.,12.0,0.,12.0,0.,12.0
1979-07-17 00:53:27.130 ,6,0,0.,12.0,0.,12.0,0.,12.0,0.,12.0
1979-07-17 00:53:39.130 ,7,1,0.,12.0,0.,12.0,0.,12.0,0.,12.0
1979-07-17 00:53:51.130 ,7,1,0.,12.0,0.,12.0,0.,12.0,0.,12.0
1979-07-17 00:54:03.130 ,7,0,0.,12.0,0.,12.0,0.,12.0,0.,12.0
1979-07-17 00:54:15.130 ,7,0,0.,12.0,0.,12.0,0.,12.0,0.,12.0
1979-07-17 00:54:27.130 ,7,1,0.,12.0,0.,12.0,0.,12.0,0.,12.0
1979-07-17 00:54:39.130 ,7,1,0.,12.0,0.,12.0,0.,12.0,0.,12.0
1979-07-17 00:54:51.130 ,7,0,0.,12.0,0.,12.0,0.,12.0,0.,12.0
1979-07-17 00:55:03.130 ,7,0,0.,12.0,0.,12.0,0.,12.0,0.,12.0
1979-07-17 00:55:15.130 ,6,1,0.,12.0,0.,12.0,0.,12.0,0.,12.0
1979-07-17 00:55:27.130 ,6,1,0.,12.0,0.,12.0,0.,12.0,0.,12.0
1979-07-17 00:55:39.130 ,6,0,0.,12.0,0.,12.0,0.,12.0,0.,12.0
1979-07-17 00:55:51.130 ,6,0,0.,12.0,0.,12.0,0.,12.0,0.,12.0
1979-07-17 00:56:03.130 ,5,1,0.,12.0,0.,12.0,0.,12.0,0.,12.0
1979-07-17 00:56:15.130 ,5,1,0.,12.0,0.,12.0,0.,12.0,0.,12.0
1979-07-17 00:56:27.130 ,5,0,0.,12.0,0.,12.0,0.,12.0,0.,12.0
1979-07-17 00:56:39.130 ,5,0,0.,12.0,0.,12.0,0.,12.0,0.,12.0
1979-07-17 00:56:51.130 ,4,1,1.,12.0,0.,12.0,0.,12.0,0.,12.0
1979-07-17 00:57:03.130 ,4,1,0.,12.0,0.,12.0,0.,12.0,0.,12.0
1979-07-17 00:57:15.130 ,4,0,0.,12.0,0.,12.0,0.,12.0,0.,12.0
1979-07-17 00:57:27.130 ,4,0,0.,12.0,0.,12.0,0.,12.0,1.,12.0
1979-07-17 00:57:39.130 ,3,1,0.,12.0,0.,12.0,0.,12.0,0.,12.0
1979-07-17 00:57:51.130 ,3,1,0.,12.0,0.,12.0,0.,12.0,0.,12.0
1979-07-17 00:58:03.130 ,3,0,0.,12.0,0.,12.0,0.,12.0,0.,12.0
1979-07-17 00:58:15.130 ,3,0,0.,12.0,0.,12.0,0.,12.0,0.,12.0
1979-07-17 00:58:27.130 ,2,1,0.,12.0,0.,12.0,0.,12.0,0.,12.0
1979-07-17 00:58:39.130 ,2,1,0.,12.0,0.,12.0,0.,12.0,0.,12.0
1979-07-17 00:58:51.130 ,2,0,0.,12.0,0.,12.0,0.,12.0,0.,12.0
1979-07-17 00:59:03.130 ,2,0,0.,12.0,0.,12.0,0.,12.0,0.,12.0
1979-07-17 00:59:15.130 ,1,1,0.,12.0,0.,12.0,0.,12.0,0.,12.0
1979-07-17 00:59:27.130 ,1,1,0.,12.0,0.,12.0,0.,12.0,0.,12.0
1979-07-17 00:59:39.130 ,1,0,0.,12.0,0.,12.0,0.,12.0,0.,12.0
1979-07-17 00:59:51.130 ,1,0,0.,12.0,0.,12.0,0.,12.0,0.,12.0
1979-07-17 01:00:03.130 ,0,1,0.,12.0,0.,12.0,0.,12.0,0.,12.0
1979-07-17 01:00:15.130 ,0,1,0.,12.0,0.,12.0,0.,12.0,0.,12.0
1979-07-17 01:00:27.130 ,0,0,1.,12.0,0.,12.0,0.,12.0,0.,12.0
1979-07-17 01:00:39.130 ,0,0,0.,12.0,0.,12.0,0.,12.0,0.,12.0
1979-07-17 01:00:51.130 ,0,1,0.,12.0,0.,12.0,0.,12.0,0.,12.0
1979-07-17 01:01:03.130 ,0,1,0.,12.0,0.,12.0,0.,12.0,0.,12.0
1979-07-17 01:01:15.130 ,0,0,0.,12.0,0.,12.0,0.,12.0,0.,12.0
1979-07-17 01:01:27.130 ,0,0,0.,12.0,0.,12.0,0.,12.0,0.,12.0
1979-07-17 01:01:39.130 ,1,1,0.,12.0,0.,12.0,0.,12.0,0.,12.0
1979-07-17 01:01:51.130 ,1,1,0.,12.0,0.,12.0,0.,12.0,0.,12.0
1979-07-17 01:02:03.130 ,1,0,0.,12.0,0.,12.0,0.,12.0,0.,12.0
1979-07-17 01:02:15.130 ,1,0,0.,12.0,0.,12.0,0.,12.0,0.,12.0
1979-07-17 01:02:27.130 ,2,1,0.,12.0,0.,12.0,0.,12.0,0.,12.0
1979-07-17 01:02:39.130 ,2,1,0.,12.0,0.,12.0,0.,12.0,0.,12.0
1979-07-17 01:02:51.130 ,2,0,1.,12.0,0.,12.0,0.,12.0,0.,12.0
1979-07-17 01:03:03.130 ,2,0,0.,12.0,0.,12.0,0.,12.0,0.,12.0
1979-07-17 01:03:15.130 ,3,1,0.,12.0,0.,12.0,0.,12.0,0.,12.0
1979-07-17 01:03:27.130 ,3,1,0.,12.0,0.,12.0,0.,12.0,0.,12.0
1979-07-17 01:03:39.130 ,3,0,0.,12.0,0.,12.0,0.,12.0,0.,12.0
1979-07-17 01:03:51.130 ,3,0,0.,12.0,0.,12.0,0.,12.0,0.,12.0
1979-07-17 01:04:03.130 ,4,1,0.,12.0,0.,12.0,0.,12.0,0.,12.0
1979-07-17 01:04:15.130 ,4,1,0.,12.0,0.,12.0,0.,12.0,0.,12.0
1979-07-17 01:04:27.130 ,4,0,0.,12.0,0.,12.0,0.,12.0,0.,12.0
1979-07-17 01:04:39.130 ,4,0,0.,12.0,0.,12.0,0.,12.0,0.,12.0
1979-07-17 01:04:51.130 ,5,1,0.,12.0,0.,12.0,0.,12.0,0.,12.0
1979-07-17 01:05:03.130 ,5,1,0.,12.0,0.,12.0,0.,12.0,0.,12.0
1979-07-17 01:05:15.130 ,5,0,0.,12.0,0.,12.0,0.,12.0,0.,12.0
1979-07-17 01:05:27.130 ,5,0,0.,12.0,0.,12.0,0.,12.0,0.,12.0
1979-07-17 01:05:39.130 ,6,1,0.,12.0,0.,12.0,0.,12.0,0.,12.0
1979-07-17 01:05:51.130 ,6,1,0.,12.0,0.,12.0,0.,12.0,0.,12.0
1979-07-17 01:06:03.130 ,6,0,0.,12.0,0.,12.0,0.,12.0,0.,12.0
1979-07-17 01:06:15.130 ,6,0,0.,12.0,0.,12.0,0.,12.0,0.,12.0
1979-07-17 01:06:27.130 ,7,0,0.,12.0,0.,12.0,0.,12.0,0.,12.0
1979-07-17 01:06:39.130 ,7,0,0.,12.0,0.,12.0,0.,12.0,0.,12.0
1979-07-17 01:06:51.130 ,7,0,0.,12.0,0.,12.0,0.,12.0,0.,12.0
1979-07-17 01:07:03.130 ,7,0,0.,12.0,0.,12.0,0.,12.0,0.,12.0
1979-07-17 01:07:15.130 ,4,1,0.,12.0,0.,12.0,0.,12.0,0.,12.0
1979-07-17 01:07:27.130 ,4,1,0.,12.0,0.,12.0,0.,12.0,0.,12.0
1979-07-17 01:07:39.130 ,0,1,0.,12.0,0.,12.0,0.,12.0,0.,12.0
1979-07-17 01:07:51.130 ,0,1,0.,12.0,0.,12.0,0.,12.0,0.,12.0
1979-07-17 01:08:03.130 ,3,1,0.,12.0,0.,12.0,0.,12.0,0.,12.0
1979-07-17 01:08:15.130 ,3,1,0.,12.0,0.,12.0,0.,12.0,2.,12.0
1979-07-17 01:08:27.130 ,7,1,0.,12.0,0.,12.0,0.,12.0,0.,12.0
1979-07-17 01:08:39.130 ,7,1,0.,12.0,0.,12.0,0.,12.0,0.,12.0
1979-07-17 01:08:51.130 ,4,1,0.,12.0,0.,12.0,0.,12.0,0.,12.0
1979-07-17 01:09:03.130 ,4,1,0.,12.0,0.,12.0,0.,12.0,0.,12.0
1979-07-17 01:09:15.130 ,0,1,0.,12.0,0.,12.0,0.,12.0,0.,12.0
1979-07-17 01:09:27.130 ,0,1,0.,12.0,0.,12.0,0.,12.0,0.,12.0
1979-07-17 01:09:39.130 ,3,1,0.,12.0,0.,12.0,0.,12.0,0.,12.0
1979-07-17 01:09:51.130 ,3,1,0.,12.0,0.,12.0,0.,12.0,0.,12.0
1979-07-17 01:10:03.130 ,7,1,0.,12.0,0.,12.0,0.,12.0,0.,12.0
1979-07-17 01:10:15.130 ,7,1,0.,12.0,0.,12.0,0.,12.0,0.,12.0
1979-07-17 01:10:27.130 ,4,1,0.,12.0,0.,12.0,0.,12.0,0.,12.0
1979-07-17 01:10:39.130 ,4,1,0.,12.0,0.,12.0,0.,12.0,0.,12.0
1979-07-17 01:10:51.130 ,0,1,0.,12.0,0.,12.0,0.,12.0,0.,12.0
1979-07-17 01:11:03.130 ,0,1,0.,12.0,0.,12.0,0.,12.0,0.,12.0
1979-07-17 01:11:15.130 ,3,1,0.,12.0,0.,12.0,0.,12.0,0.,12.0
1979-07-17 01:11:27.130 ,3,1,0.,12.0,0.,12.0,0.,12.0,1.,12.0
1979-07-17 01:11:39.130 ,7,1,0.,12.0,0.,12.0,0.,12.0,0.,12.0
1979-07-17 01:11:51.130 ,7,1,0.,12.0,0.,12.0,0.,12.0,0.,12.0
1979-07-17 01:12:03.130 ,4,1,0.,12.0,0.,12.0,0.,12.0,0.,12.0
1979-07-17 01:12:15.130 ,4,1,0.,12.0,0.,12.0,0.,12.0,0.,12.0
1979-07-17 01:12:27.130 ,0,1,0.,12.0,0.,12.0,0.,12.0,0.,12.0
1979-07-17 01:12:39.130 ,0,1,0.,12.0,0.,12.0,0.,12.0,0.,12.0
1979-07-17 01:12:51.130 ,3,1,0.,12.0,0.,12.0,0.,12.0,0.,12.0
1979-07-17 01:13:03.130 ,3,1,0.,12.0,0.,12.0,0.,12.0,0.,12.0
1979-07-17 01:13:15.130 ,7,1,0.,12.0,0.,12.0,0.,12.0,0.,12.0
1979-07-17 01:13:27.130 ,7,1,0.,12.0,0.,12.0,0.,12.0,0.,12.0
1979-07-17 01:13:39.130 ,4,1,0.,12.0,0.,12.0,0.,12.0,0.,12.0
1979-07-17 01:13:51.130 ,4,1,0.,12.0,0.,12.0,0.,12.0,0.,12.0
1979-07-17 01:14:03.130 ,0,1,0.,12.0,0.,12.0,0.,12.0,0.,12.0
1979-07-17 01:14:15.130 ,0,1,0.,12.0,0.,12.0,0.,12.0,0.,12.0
1979-07-17 01:14:27.130 ,3,1,0.,12.0,0.,12.0,0.,12.0,0.,12.0
1979-07-17 01:14:39.130 ,3,1,0.,12.0,0.,12.0,0.,12.0,2.,12.0
1979-07-17 01:14:51.130 ,7,1,0.,12.0,0.,12.0,0.,12.0,0.,12.0
1979-07-17 01:15:03.130 ,7,1,0.,12.0,0.,12.0,0.,12.0,0.,12.0
1979-07-17 01:15:15.130 ,4,1,0.,12.0,0.,12.0,0.,12.0,0.,12.0
1979-07-17 01:15:27.130 ,4,1,0.,12.0,0.,12.0,0.,12.0,0.,12.0
1979-07-17 01:15:39.130 ,0,1,0.,12.0,0.,12.0,0.,12.0,0.,12.0
1979-07-17 01:15:51.130 ,0,1,0.,12.0,0.,12.0,0.,12.0,0.,12.0
1979-07-17 01:16:03.130 ,3,1,0.,12.0,0.,12.0,0.,12.0,0.,12.0
1979-07-17 01:16:15.130 ,3,1,0.,12.0,0.,12.0,0.,12.0,2.,12.0
1979-07-17 01:16:27.130 ,7,1,0.,12.0,0.,12.0,0.,12.0,0.,12.0
1979-07-17 01:16:39.130 ,7,1,0.,12.0,0.,12.0,0.,12.0,0.,12.0
1979-07-17 01:16:51.130 ,4,1,0.,12.0,0.,12.0,0.,12.0,0.,12.0
1979-07-17 01:17:03.130 ,4,1,0.,12.0,0.,12.0,0.,12.0,0.,12.0